Terminal Aerodrome Forecast
Issued by NWS

Home | Current Version | Previous Version | Text Only | Print | Product List | Glossary On
Versions: 1 2 3 4 5 6 7 8 9 10 11 12 13
000
FTUS44 KCRP 230500
TAFLRD
TAF
KLRD 230539Z 2306/2406 15015G22KT P6SM FEW250
     FM230800 16008KT P6SM FEW025
     FM231600 15012G20KT P6SM SKC=

USA.gov is the U.S. government's official web portal to all federal, state and local government web resources and services.